EW4987 Weather Reports


Display with metric or nautical units.
time (UTC)temp
F
wind
direction
speed
MPH
gust
MPH
rain 1hr
in
rain 24hr
in
rain mn
in
humidity
%
barometer
mb
20260510060022 39 360 0.0 0.0 0.00 0.00 0.00 53 1016.6
20260510054523 41 215 0.0 0.0 0.00 0.00 0.00 52 1016.5
20260510053013 42 215 0.0 0.0 0.00 0.00 0.00 51 1016.4
20260510051515 43 215 0.0 0.0 0.00 0.00 0.00 49 1016.2
20260510050004 44 215 0.0 0.0 0.00 0.00 0.00 48 1015.8
20260510044602 44 215 0.0 0.0 0.00 0.00 0.00 48 1015.6
20260510043102 46 215 0.0 0.0 0.00 0.00 0.00 45 1015.5
20260510041607 47 215 0.0 0.0 0.00 0.00 0.00 41 1015.4
20260510040047 50 215 0.0 0.0 0.00 0.00 0.00 36 1015.0
20260510034542 51 217 0.0 0.0 0.00 0.00 0.00 36 1014.7
20260510033038 51 217 0.0 0.0 0.00 0.00 0.00 34 1014.4
20260510031534 51 217 0.0 0.0 0.00 0.00 0.00 36 1014.0
20260510030029 53 217 0.0 0.0 0.00 0.00 0.00 36 1013.7
20260510024525 52 217 0.0 0.0 0.00 0.00 0.00 37 1013.4
20260510023020 55 217 0.0 0.0 0.00 0.00 0.00 40 1013.1
20260510021515 60 217 0.0 0.0 0.00 0.00 0.00 28 1012.8
20260510020011 64 217 0.0 0.0 0.00 0.00 0.00 21 1012.7
20260510014514 65 265 0.0 0.0 0.00 0.00 0.00 20 1012.7
20260510013003 65 265 0.0 0.0 0.00 0.00 0.00 19 1012.5
20260510011558 65 263 0.0 0.0 0.00 0.00 0.00 22 1012.7
20260510010105 64 279 0.0 0.0 0.00 0.00 0.00 22 1012.6
20260510004557 65 306 0.0 0.0 0.00 0.00 0.00 21 1012.6
20260510003046 65 305 0.0 0.0 0.00 0.00 0.00 20 1012.7
20260510001541 65 309 0.0 0.0 0.00 0.00 0.00 23 1012.7
20260510000041 65 268 0.0 0.0 0.00 0.00 0.00 21 1012.8
20260509234543 65 321 0.0 0.0 0.00 0.00 0.00 26 1012.8
20260509233027 65 317 0.0 0.0 0.00 0.00 0.00 24 1012.7
20260509231530 66 325 0.0 0.0 0.00 0.00 0.00 20 1012.7
20260509230020 66 267 0.0 0.0 0.00 0.00 0.00 23 1012.6
20260509224514 66 265 0.0 0.0 0.00 0.00 0.00 23 1012.5
20260509223014 67 308 0.0 0.0 0.00 0.00 0.00 23 1012.5
20260509221516 67 306 0.0 0.0 0.00 0.00 0.00 22 1012.6
20260509220001 67 317 0.0 0.0 0.00 0.00 0.00 20 1012.7
20260509214557 67 297 0.0 0.0 0.00 0.00 0.00 21 1012.8
20260509213053 66 296 0.0 0.0 0.00 0.00 0.00 22 1012.9
20260509211547 66 325 0.0 0.0 0.00 0.00 0.00 18 1012.8
20260509210051 66 292 0.0 0.0 0.00 0.00 0.00 21 1012.8
20260509204539 66 325 0.0 0.0 0.00 0.00 0.00 22 1012.9
20260509203041 66 273 0.0 0.0 0.00 0.00 0.00 18 1012.9
20260509201532 65 334 0.0 0.0 0.00 0.00 0.00 21 1013.1
20260509200032 66 317 0.0 0.0 0.00 0.00 0.00 18 1013.1
20260509194524 66 280 0.0 0.0 0.00 0.00 0.00 23 1013.1
20260509193020 65 327 0.0 0.0 0.00 0.00 0.00 22 1013.1
20260509191516 65 323 0.0 0.0 0.00 0.00 0.00 17 1013.2
20260509190011 65 301 0.0 0.0 0.00 0.00 0.00 23 1013.1
20260509184518 65 281 0.0 0.0 0.00 0.00 0.00 23 1013.2
20260509183002 65 319 0.0 0.0 0.00 0.00 0.00 21 1013.2
20260509181558 65 298 0.0 0.0 0.00 0.00 0.00 22 1013.2
20260509180054 64 271 0.0 0.0 0.00 0.00 0.00 19 1013.3
20260509174549 64 323 0.0 0.0 0.00 0.00 0.00 19 1013.4
20260509173056 63 341 0.0 0.0 0.00 0.00 0.00 28 1013.5
20260509171548 63 295 0.0 0.0 0.00 0.00 0.00 22 1013.7
20260509170041 63 311 0.0 0.0 0.00 0.00 0.00 24 1013.7
20260509164540 61 298 0.0 0.0 0.00 0.00 0.00 27 1013.7
20260509163029 61 263 0.0 0.0 0.00 0.00 0.00 33 1013.6
20260509161523 59 221 0.0 0.0 0.00 0.00 0.00 39 1013.9
20260509160021 56 221 0.0 0.0 0.00 0.00 0.00 41 1014.1
20260509154514 54 219 0.0 0.0 0.00 0.00 0.00 34 1014.3
20260509153009 52 217 0.0 0.0 0.00 0.00 0.00 26 1014.5
20260509151505 51 217 0.0 0.0 0.00 0.00 0.00 32 1014.7
20260509144556 46 217 0.0 0.0 0.00 0.00 0.00 1 1015.0
20260509143056 44 217 0.0 0.0 0.00 0.00 0.00 1 1015.1
20260509141551 43 217 0.0 0.0 0.00 0.00 0.00 1 1015.2
20260509140045 41 217 0.0 0.0 0.00 0.00 0.00 1 1015.1
20260509134550 39 217 0.0 0.0 0.00 0.00 0.00 1 1015.2
20260509133036 36 217 0.0 0.0 0.00 0.00 0.00 1 1015.0
20260509131549 34 217 0.0 0.0 0.00 0.00 0.00 1 1014.9
20260509130041 34 146 0.0 0.0 0.00 0.00 0.00 1 1014.7
20260509124529 33 146 0.0 0.0 0.00 0.00 0.00 1 1014.4
20260509123024 33 146 0.0 0.0 0.00 0.00 0.00 1 1014.4
20260509121515 35 146 0.0 0.0 0.00 0.00 0.00 1 1014.3
20260509120008 36 146 0.0 0.0 0.00 0.00 0.00 1 1014.1
20260509114503 34 156 0.0 0.0 0.00 0.00 0.00 1 1014.1
20260509113106 34 156 0.0 0.0 0.00 0.00 0.00 1 1014.0
20260509111554 34 156 0.0 0.0 0.00 0.00 0.00 1 1013.8
20260509104554 35 156 0.0 0.0 0.00 0.00 0.00 1 1013.7
20260509103041 36 156 0.0 0.0 0.00 0.00 0.00 1 1013.6
20260509101537 37 156 0.0 0.0 0.00 0.00 0.00 1 1013.4
20260509100036 38 156 0.0 0.0 0.00 0.00 0.00 1 1013.2
20260509094528 38 156 0.0 0.0 0.00 0.00 0.00 1 1013.1
20260509093026 39 156 0.0 0.0 0.00 0.00 0.00 1 1013.0
20260509091519 39 156 0.0 0.0 0.00 0.00 0.00 1 1012.8
20260509090016 40 156 0.0 0.0 0.00 0.00 0.00 1 1012.7
20260509084513 40 156 0.0 0.0 0.00 0.00 0.00 1 1012.6
20260509083006 40 156 0.0 0.0 0.00 0.00 0.00 1 1012.6
20260509081502 41 156 0.0 0.0 0.00 0.00 0.00 1 1012.5
20260509080059 42 156 0.0 0.0 0.00 0.00 0.00 4 1012.3
20260509074600 42 156 0.0 0.0 0.00 0.00 0.00 18 1012.2
20260509073050 42 156 0.0 0.0 0.00 0.00 0.00 31 1012.1
20260509071549 43 156 0.0 0.0 0.00 0.00 0.00 31 1011.9
20260509070046 43 156 0.0 0.0 0.00 0.00 0.00 38 1011.7
20260509064541 43 156 0.0 0.0 0.00 0.00 0.00 41 1011.4
20260509063038 44 156 0.0 0.0 0.00 0.00 0.00 45 1011.2
20260509061533 44 156 0.0 0.0 0.00 0.00 0.00 48 1011.0